{"data":{"norad_id":48481,"intl_designator":"2021-040BF","name":"STARLINK-2706","alt_names":[],"object_type":"PAYLOAD","status":"ACTIVE","operator":null,"country":"US","launch_date":"2021-05-09","launch_site_code":"AFETR","launch_vehicle":null,"mission":null,"orbit_class":"UNKNOWN","rcs_meters":null,"size_class":null,"mass_kg":null,"dimensions":null,"purposes":["comms"],"wikipedia_slug":null,"has_3d_model":false,"image_url":null,"decayed_at":null,"tle_current":{"epoch":"2026-05-25T04:09:03.763872Z","epoch_age_seconds":53252,"freshness":"FRESH","line1":"1 48481U 21040BF  26145.17296023  .00001507  00000+0  60320-4 0  9997","line2":"2 48481  53.1570 197.7658 0001404  78.5112 281.6047 15.31704118278189","mean_motion":15.31704118,"eccentricity":0.0001404,"inclination_deg":53.157,"raan_deg":197.7658,"arg_perigee_deg":78.5112,"mean_anomaly_deg":281.6047,"bstar":6.032e-5,"rev_number":27818,"period_min":94.012935205806,"perigee_km":469.76613910279,"apogee_km":471.68930031608,"semimajor_km":6848.8647197094,"source":"CELESTRAK","updated_at":"2026-05-25T13:38:16.722787Z"}}}